When you browse on this site, cookies collect data to enhance your experience and personalize the content and advertising you see.
Visit our Privacy Policy to learn more. By continuing to use the site, you agree to this use of cookies and data.
  • In Hungary
  • List of Countries
  • For 7 days
  • Water Temperature
  • Satellite Maps
  • Weather Map
  • News
  • Weather Widgets
  • user-avatar
    Login

    Hourly Weather Valley Station

    Today, 18 June, Tuesday

    Time Temperature Precipitation Wind Pressure Humidity
    00:00 +22°C° 1.1 mm 5 mps 748 mmHg 93%
    01:00 +22°C° 2.2 mm 4 mps 748 mmHg 94%
    02:00 +22°C° 2.2 mm 3 mps 747 mmHg 95%
    03:00 +22°C° 2.2 mm 3 mps 747 mmHg 95%
    04:00 +21°C° 2.3 mm 2 mps 747 mmHg 96%
    05:00 +21°C° 2.3 mm 2 mps 747 mmHg 96%
    06:00 +21°C° 2.3 mm 2 mps 747 mmHg 96%
    07:00 +23°C° 1.1 mm 2 mps 747 mmHg 95%
    08:00 +22°C° 1.1 mm 3 mps 747 mmHg 94%
    09:00 +24°C° 1.1 mm 3 mps 747 mmHg 93%
    10:00 +25°C° 1.1 mm 3 mps 747 mmHg 91%
    11:00 +26°C° 1.1 mm 3 mps 747 mmHg 89%
    12:00 +26°C° 1.1 mm 3 mps 747 mmHg 87%
    13:00 +27°C° 1.1 mm 3 mps 746 mmHg 84%
    14:00 +28°C° 1.1 mm 3 mps 746 mmHg 81%
    15:00 +29°C° 1.1 mm 3 mps 745 mmHg 78%
    16:00 +28°C° 1.7 mm 3 mps 745 mmHg 81%
    17:00 +27°C° 1.7 mm 2 mps 744 mmHg 84%
    18:00 +27°C° 1.7 mm 2 mps 744 mmHg 86%
    19:00 +26°C° 1.4 mm 2 mps 744 mmHg 88%
    20:00 +25°C° 1.4 mm 2 mps 744 mmHg 89%
    21:00 +24°C° 1.4 mm 2 mps 744 mmHg 91%
    22:00 +23°C° 0.4 mm 2 mps 744 mmHg 92%
    23:00 +23°C° 0.4 mm 1 mps 744 mmHg 93%

    Tomorrow, 19 June, Wednesday

    Time Temperature Precipitation Wind Pressure Humidity
    00:00 +23°C° 0.4 mm 1 mps 744 mmHg 94%
    01:00 +23°C° 0 mm 1 mps 743 mmHg 95%
    02:00 +22°C° 0 mm 1 mps 743 mmHg 95%
    03:00 +22°C° 0 mm 1 mps 743 mmHg 96%
    04:00 +22°C° 0 mm 1 mps 743 mmHg 95%
    05:00 +23°C° 0 mm 1 mps 743 mmHg 95%
    06:00 +23°C° 0 mm 1 mps 743 mmHg 94%
    07:00 +25°C° 0.3 mm 2 mps 743 mmHg 89%
    08:00 +26°C° 0.3 mm 2 mps 743 mmHg 84%
    09:00 +28°C° 0.3 mm 2 mps 743 mmHg 79%
    10:00 +29°C° 0.5 mm 3 mps 743 mmHg 76%
    11:00 +29°C° 0.5 mm 3 mps 743 mmHg 72%
    12:00 +30°C° 0.5 mm 4 mps 743 mmHg 69%
    13:00 +30°C° 0.5 mm 3 mps 742 mmHg 70%
    14:00 +30°C° 0.5 mm 3 mps 742 mmHg 70%
    15:00 +30°C° 0.5 mm 3 mps 742 mmHg 70%
    16:00 +28°C° 1.8 mm 3 mps 742 mmHg 76%
    17:00 +27°C° 1.8 mm 2 mps 741 mmHg 82%
    18:00 +25°C° 1.8 mm 2 mps 741 mmHg 88%
    19:00 +24°C° 0.1 mm 1 mps 741 mmHg 88%
    20:00 +24°C° 0.1 mm 1 mps 741 mmHg 89%
    21:00 +23°C° 0.1 mm 1 mps 741 mmHg 89%
    22:00 +23°C° 1.1 mm 1 mps 741 mmHg 91%
    23:00 +23°C° 1.1 mm 2 mps 740 mmHg 93%

    Day after tomorrow, 20 June, Thursday

    Time Temperature Precipitation Wind Pressure Humidity
    00:00 +23°C° 1.1 mm 2 mps 740 mmHg 94%
    01:00 +21°C° 5.2 mm 3 mps 739 mmHg 94%
    02:00 +20°C° 5.2 mm 3 mps 739 mmHg 94%
    03:00 +20°C° 5.2 mm 4 mps 738 mmHg 94%
    04:00 +21°C° 0.4 mm 4 mps 738 mmHg 94%
    05:00 +22°C° 0.4 mm 5 mps 738 mmHg 94%
    06:00 +23°C° 0.4 mm 6 mps 737 mmHg 94%
    07:00 +23°C° 0.2 mm 6 mps 738 mmHg 91%
    08:00 +23°C° 0.2 mm 7 mps 738 mmHg 88%
    09:00 +22°C° 0.2 mm 7 mps 738 mmHg 85%
    10:00 +23°C° 0.1 mm 8 mps 739 mmHg 81%
    11:00 +24°C° 0.1 mm 8 mps 739 mmHg 77%
    12:00 +26°C° 0.1 mm 8 mps 740 mmHg 73%
    13:00 +26°C° 0.5 mm 7 mps 741 mmHg 76%
    14:00 +26°C° 0.5 mm 7 mps 741 mmHg 78%
    15:00 +26°C° 0.5 mm 7 mps 742 mmHg 81%
    16:00 +25°C° 0.1 mm 5 mps 743 mmHg 81%
    17:00 +25°C° 0.1 mm 4 mps 743 mmHg 81%
    18:00 +25°C° 0.1 mm 3 mps 744 mmHg 82%
    19:00 +24°C° 0 mm 3 mps 745 mmHg 85%
    20:00 +23°C° 0 mm 2 mps 745 mmHg 88%
    21:00 +21°C° 0 mm 1 mps 746 mmHg 91%
    22:00 +21°C° 0 mm 1 mps 746 mmHg 92%
    23:00 +21°C° 0 mm 1 mps 746 mmHg 92%

    21 June, Friday

    Time Temperature Precipitation Wind Pressure Humidity
    00:00 +21°C° 0 mm 1 mps 746 mmHg 93%
    01:00 +20°C° 0 mm 1 mps 747 mmHg 93%
    02:00 +20°C° 0 mm 1 mps 747 mmHg 93%
    03:00 +20°C° 0 mm 1 mps 747 mmHg 93%
    04:00 +21°C° 0 mm 1 mps 748 mmHg 92%
    05:00 +21°C° 0 mm 1 mps 748 mmHg 91%
    06:00 +22°C° 0 mm 1 mps 749 mmHg 91%
    07:00 +23°C° 0 mm 1 mps 749 mmHg 84%
    08:00 +25°C° 0 mm 1 mps 749 mmHg 77%
    09:00 +27°C° 0 mm 1 mps 750 mmHg 70%
    10:00 +28°C° 0 mm 1 mps 749 mmHg 66%
    11:00 +30°C° 0 mm 1 mps 749 mmHg 63%
    12:00 +31°C° 0 mm 1 mps 749 mmHg 59%
    13:00 +31°C° 0 mm 2 mps 749 mmHg 60%
    14:00 +31°C° 0 mm 2 mps 749 mmHg 62%
    15:00 +32°C° 0 mm 2 mps 748 mmHg 63%
    16:00 +31°C° 0.1 mm 2 mps 748 mmHg 68%
    17:00 +30°C° 0.1 mm 2 mps 748 mmHg 74%
    18:00 +29°C° 0.1 mm 2 mps 748 mmHg 79%
    19:00 +28°C° 0.1 mm 2 mps 748 mmHg 82%
    20:00 +27°C° 0.1 mm 2 mps 748 mmHg 86%
    21:00 +26°C° 0.1 mm 2 mps 748 mmHg 89%
    22:00 +25°C° 2.2 mm 2 mps 748 mmHg 90%
    23:00 +25°C° 2.2 mm 2 mps 748 mmHg 92%

    22 June, Saturday

    Time Temperature Precipitation Wind Pressure Humidity
    00:00 +24°C° 2.2 mm 2 mps 748 mmHg 93%
    01:00 +24°C° 1.4 mm 2 mps 748 mmHg 94%
    02:00 +24°C° 1.4 mm 2 mps 748 mmHg 94%
    03:00 +24°C° 1.4 mm 2 mps 748 mmHg 95%
    04:00 +24°C° 2 mm 2 mps 749 mmHg 95%
    05:00 +25°C° 2 mm 2 mps 749 mmHg 95%
    06:00 +25°C° 2 mm 2 mps 750 mmHg 96%
    07:00 +25°C° 3.2 mm 2 mps 750 mmHg 93%
    08:00 +24°C° 3.2 mm 2 mps 750 mmHg 90%
    09:00 +24°C° 3.2 mm 2 mps 750 mmHg 87%
    10:00 +26°C° 0 mm 3 mps 750 mmHg 81%
    11:00 +28°C° 0 mm 4 mps 749 mmHg 76%
    12:00 +30°C° 0 mm 5 mps 749 mmHg 70%
    13:00 +30°C° 0 mm 4 mps 749 mmHg 69%
    14:00 +31°C° 0 mm 3 mps 749 mmHg 69%
    15:00 +33°C° 0 mm 3 mps 748 mmHg 68%
    16:00 +31°C° 0.1 mm 2 mps 748 mmHg 72%
    17:00 +30°C° 0.1 mm 2 mps 748 mmHg 77%
    18:00 +30°C° 0.1 mm 1 mps 748 mmHg 81%
    19:00 +29°C° 0 mm 1 mps 748 mmHg 84%
    20:00 +28°C° 0 mm 1 mps 748 mmHg 87%
    21:00 +27°C° 0 mm 1 mps 748 mmHg 90%
    22:00 +26°C° 0.1 mm 1 mps 748 mmHg 91%
    23:00 +26°C° 0.1 mm 1 mps 748 mmHg 92%

    23 June, Sunday

    Time Temperature Precipitation Wind Pressure Humidity
    00:00 +26°C° 0.1 mm 1 mps 748 mmHg 94%
    01:00 +25°C° 1.2 mm 2 mps 748 mmHg 94%
    02:00 +25°C° 1.2 mm 2 mps 748 mmHg 94%
    03:00 +25°C° 1.2 mm 2 mps 748 mmHg 94%
    04:00 +25°C° 1 mm 2 mps 748 mmHg 92%
    05:00 +25°C° 1 mm 2 mps 748 mmHg 91%
    06:00 +25°C° 1 mm 3 mps 748 mmHg 89%
    07:00 +27°C° 0.3 mm 3 mps 748 mmHg 86%
    08:00 +28°C° 0.3 mm 3 mps 748 mmHg 84%
    09:00 +29°C° 0.3 mm 3 mps 748 mmHg 81%
    10:00 +30°C° 0.5 mm 3 mps 748 mmHg 75%
    11:00 +32°C° 0.5 mm 4 mps 748 mmHg 70%
    12:00 +33°C° 0.5 mm 4 mps 748 mmHg 64%
    13:00 +33°C° 0.1 mm 4 mps 747 mmHg 65%
    14:00 +33°C° 0.1 mm 4 mps 747 mmHg 66%
    15:00 +33°C° 0.1 mm 4 mps 746 mmHg 67%
    16:00 +32°C° 0.1 mm 4 mps 746 mmHg 72%
    17:00 +30°C° 0.1 mm 4 mps 746 mmHg 77%
    18:00 +29°C° 0.1 mm 4 mps 746 mmHg 81%
    19:00 +29°C° 0.3 mm 3 mps 746 mmHg 84%
    20:00 +28°C° 0.3 mm 3 mps 746 mmHg 87%
    21:00 +27°C° 0.3 mm 3 mps 746 mmHg 89%
    22:00 +26°C° 0 mm 2 mps 746 mmHg 90%
    23:00 +26°C° 0 mm 2 mps 746 mmHg 90%
    Show more